STARLINK-34545, 65105

Orbit data source: Space-Track

STARLINK-34545, 65105 is a payload satellite owned by SpaceX/Seattle (US) in LEO that was launched on Mon, 04 Aug 2025 UTC via an FALCON 9 launch vehicle from the Air Force Eastern Test Range (AFETR). Payload-class satellites include a variety of spacecraft equipped with specific instruments for various scientific and technological missions. These include communications satellites like Starlink; space stations such as the ISS; scientific satellites like the Hubble; Earth observation satellites from companies like Planet Labs, Umbra, and HawkEye 360; GPS; miniature CubeSats for education and research; and military/defense satellites.

Loading next visibility...
Identifier
65105, 2025-167AD
Orbit
LEO
Country
Flag of USUS
Related business
Manufacturer
SpaceX/Seattle
Mission
Operational Commercial Communications
Bus & Motor
STARLINK V2MO, Unknown motor
Mass
575 kg wet, ~530 kg dry
Launch date (UTC)
2025-08-04 (11 months ago)
Launch vehicle
FALCON 9
Launch site
Air Force Eastern Test Range (AFETR)
Object type
Payload
Rocket body
Debris
Shape & HBR
Box + 2 Pan, 17.7 m
Radar Cross Section
36.964 m², Large (>1 m²)

Expand to show TLE details & history
Last TLE update: 2 days ago

TLE from 2 days ago
0 STARLINK-34545
1 65105U 25167AD  26173.52320278  .00028207  00000-0  84286-3 0  9996
2 65105  53.1573 254.4987 0000507  78.8562 281.2497 15.34398426 49607
Epoch: 2026-06-22T12:33Z
TLE epoch observation values (Epoch: 2026-06-22T12:33:24.720Z)
Latitude
-0.00005°
Longitude
155.43776°
Altitude
463.541 km
Speed
7.636 km/s
True Right ascension
16h 57m 59s
True Declination
0° 00' 00"
Sunlit
Object was in full shadow at epoch
Visualization orbit readout
Latitude
Unknown
Longitude
Unknown
Altitude
Unknown
Speed
Unknown
Apparent Right ascension
Unknown
Apparent Declination
Unknown
Sunlit
N/A
Visualization observer readout
Local Sidereal Time
12:31:25
Azimuth
Unknown
Elevation
Unknown
Doppler factor
Unknown
Orbital elements
Apogee altitude
463.312 km
Perigee altitude
462.618 km
Semi-major axis
6,841.102 km
Eccentricity
0.00005
Inclination
53.1573°
RAAN
254.4987°
Arg. of periapsis
78.8562°
True anomaly
281.244°
Mean anomaly
281.2497°
Eccentric anomaly
281.24685°
Mean motion
3.83578 °/min
Orbital period
93.85 mins
BSTAR
0.00084286
Loading maneuver chart data...
Computing Atmospheric mass density...
Loading historical data...
Loading historical data...
Loading historical data...
Loading historical data...
Loading historical data...
Loading historical data...
Loading historical data...

Documentation

Showing up to 5 results
|